Tracking 34346 objects as of 10-Jun-2026
HD Live streaming from Space Station
objects crossing your sky now

INTELSAT 3-F7

Track INTELSAT 3-F7 now!
INTELSAT 3-F7 is classified as:


NORAD ID: 4376
Int'l Code: 1970-032A
Perigee: 35,768.5 km
Apogee: 35,792.2 km
Inclination: 2.4 °
Period: 1,435.4 minutes
Semi major axis: 42151 km
RCS: 0.003 m2 (small)
Launch date: April 23, 1970
Source: International Telecommunications Satellite Organization (ITSO)
Launch site: AIR FORCE EASTERN TEST RANGE (AFETR)
Your satellite tracking list
Your tracking list is empty




NASA's NSSDC Master Catalog

Two Line Element Set (TLE):
1 04376U 70032A   26161.15809866 -.00000305  00000-0  00000-0 0  9990
2 04376   2.4109  87.8807 0002802 240.1472 119.3827  1.00319622 47295
Source of the keplerian elements: AFSPC